Terminal Aerodrome Forecast
Issued by NWS

Home | Current Version | Previous Version | Graphics & Text | Print | Product List | Glossary On
Versions: 1 2 3 4 5 6 7 8 9 10 11 12 13 14 15
000
FTUS43 KICT 251720
TAFSLN
TAF
KSLN 251720Z 2518/2618 35014G22KT P6SM SCT200
     FM252300 34007KT P6SM SKC
     FM261100 30006KT P6SM SKC=

USA.gov is the U.S. government's official web portal to all federal, state and local government web resources and services.